This is the latest recevied weather packets stored in our database for station/object KA1BMF-13. If no packets are shown the sender has not sent any weather packets the latest 10 day(s).
| Time | Temp. | Humidity | Pressure | Rain* | Wind** | Luminosity | Snow |
|---|---|---|---|---|---|---|---|
| 1788440429 | 21.11° C | 100% | 1014.8 hPa | 0 mm | - | 164 W/m² | - |
| 1788439829 | 20.56° C | 100% | 1014.8 hPa | 0 mm | - | 154 W/m² | - |
| 1788439229 | 20.56° C | 100% | 1014.9 hPa | 0 mm | - | 120 W/m² | - |
| 1788438630 | 20.56° C | 100% | 1015.2 hPa | 0 mm | - | 75 W/m² | - |
| 1788438030 | 20.56° C | 100% | 1015.3 hPa | 0 mm | - | 37 W/m² | - |
| 1788437416 | 20° C | 100% | 1015.2 hPa | 0 mm | - | 48 W/m² | - |
| 1788436817 | 20° C | 100% | 1015.4 hPa | 0 mm | - | 39 W/m² | - |
| 1788436217 | 20° C | 100% | 1015.5 hPa | 0 mm | - | 30 W/m² | - |
| 1788435617 | 20° C | 100% | 1015.5 hPa | 0 mm | - | 23 W/m² | - |
| 1788435017 | 20° C | 100% | 1015.6 hPa | 0 mm | - | 12 W/m² | - |
| 1788434418 | 20° C | 100% | 1015.5 hPa | 0 mm | - | 7 W/m² | - |
| 1788433817 | 20° C | 100% | 1015.4 hPa | 0 mm | - | 8 W/m² | - |
| 1788433218 | 20° C | 99% | 1015.3 hPa | 0 mm | - | 5 W/m² | - |
| 1788432618 | 19.44° C | 99% | 1015.3 hPa | 0 mm | - | 3 W/m² | - |
| 1788432018 | 19.44° C | 99% | 1015 hPa | 0 mm | - | 2 W/m² | - |
| 1788431418 | 19.44° C | 99% | 1015.1 hPa | 0 mm | - | 1 W/m² | - |
| 1788430819 | 19.44° C | 99% | 1015.2 hPa | 0 mm | - | 0 W/m² | - |
| 1788430218 | 19.44° C | 99% | 1014.8 hPa | 0 mm | - | 0 W/m² | - |
| 1788429619 | 19.44° C | 99% | 1014.6 hPa | 0 mm | - | 0 W/m² | - |
| 1788429019 | 19.44° C | 99% | 1014.7 hPa | 0 mm | - | 0 W/m² | - |
| 1788428419 | 19.44° C | 99% | 1014.6 hPa | 0 mm | - | 0 W/m² | - |
| 1788427817 | 19.44° C | 99% | 1014.6 hPa | 0 mm | - | 0 W/m² | - |
| 1788427217 | 19.44° C | 99% | 1014.8 hPa | 0 mm | - | 0 W/m² | - |
| 1788426617 | 19.44° C | 99% | 1014.8 hPa | 0 mm | - | 0 W/m² | - |
| 1788426017 | 19.44° C | 99% | 1014.9 hPa | 0 mm | - | 0 W/m² | - |
* Rain latest hour (hover to see other rain measurements)
** Current wind speed in m/s (hover to see current wind gust speed)